TimeEDT,TemperatureF,Dew PointF,Humidity,Sea Level PressureIn,VisibilityMPH,Wind Direction,Wind SpeedMPH,Gust SpeedMPH,PrecipitationIn,Events,Conditions,WindDirDegrees,DateUTC
12:15 AM,43.7,24.3,46,30.43,10.0,ENE,6.9,-,N/A,,Clear,70,2014-04-17 04:15:00
12:35 AM,43.2,24.1,47,30.43,10.0,East,8.1,-,N/A,,Clear,80,2014-04-17 04:35:00
12:55 AM,42.8,24.4,48,30.43,10.0,ENE,6.9,-,N/A,,Clear,60,2014-04-17 04:55:00
1:15 AM,41.9,24.3,50,30.43,10.0,ENE,6.9,-,N/A,,Clear,70,2014-04-17 05:15:00
1:35 AM,41.9,23.9,49,30.44,10.0,ENE,8.1,-,N/A,,Clear,70,2014-04-17 05:35:00
1:55 AM,41.9,23.5,48,30.44,10.0,ENE,9.2,-,N/A,,Clear,60,2014-04-17 05:55:00
2:15 AM,41.5,23.0,48,30.44,10.0,ENE,9.2,-,N/A,,Clear,70,2014-04-17 06:15:00
2:35 AM,41.2,22.8,48,30.44,10.0,East,8.1,-,N/A,,Clear,80,2014-04-17 06:35:00
2:55 AM,41.2,22.3,47,30.44,10.0,ENE,6.9,-,N/A,,Clear,70,2014-04-17 06:55:00
3:15 AM,40.8,22.1,47,30.44,10.0,ENE,6.9,-,N/A,,Clear,70,2014-04-17 07:15:00
3:35 AM,40.6,22.1,48,30.45,10.0,ENE,5.8,-,N/A,,Clear,60,2014-04-17 07:35:00
3:55 AM,40.3,21.9,48,30.46,10.0,ENE,9.2,-,N/A,,Clear,70,2014-04-17 07:55:00
4:15 AM,39.7,22.1,49,30.47,10.0,ENE,8.1,-,N/A,,Clear,60,2014-04-17 08:15:00
4:35 AM,39.2,23.0,52,30.47,10.0,ENE,6.9,-,N/A,,Clear,60,2014-04-17 08:35:00
4:55 AM,38.3,23.9,56,30.47,10.0,NE,4.6,-,N/A,,Clear,50,2014-04-17 08:55:00
5:15 AM,37.6,23.9,58,30.48,10.0,NNE,3.5,-,N/A,,Clear,30,2014-04-17 09:15:00
5:35 AM,36.9,24.4,61,30.48,10.0,NE,3.5,-,N/A,,Clear,40,2014-04-17 09:35:00
5:55 AM,36.9,24.6,61,30.49,10.0,Calm,Calm,-,N/A,,Clear,0,2014-04-17 09:55:00
6:15 AM,36.3,24.8,63,30.49,10.0,Calm,Calm,-,N/A,,Clear,0,2014-04-17 10:15:00
6:55 AM,36.7,25.0,63,30.50,10.0,NNE,3.5,-,N/A,,Clear,30,2014-04-17 10:55:00
7:15 AM,35.8,25.7,67,30.51,10.0,Calm,Calm,-,N/A,,Clear,0,2014-04-17 11:15:00
7:35 AM,38.5,26.1,61,30.52,10.0,Calm,Calm,-,N/A,,Clear,0,2014-04-17 11:35:00
7:55 AM,39.7,25.7,57,30.52,10.0,NE,4.6,-,N/A,,Clear,40,2014-04-17 11:55:00
8:15 AM,41.4,26.8,56,30.52,10.0,NE,5.8,-,N/A,,Clear,50,2014-04-17 12:15:00
8:35 AM,41.9,27.9,58,30.52,10.0,Calm,Calm,-,N/A,,Clear,0,2014-04-17 12:35:00
8:55 AM,43.0,27.1,54,30.53,10.0,ENE,5.8,-,N/A,,Clear,60,2014-04-17 12:55:00
9:15 AM,43.2,26.4,52,30.54,10.0,NE,5.8,-,N/A,,Clear,50,2014-04-17 13:15:00
9:35 AM,44.8,25.9,48,30.54,10.0,ENE,9.2,-,N/A,,Clear,60,2014-04-17 13:35:00
9:55 AM,46.0,24.6,43,30.54,10.0,ENE,6.9,-,N/A,,Clear,60,2014-04-17 13:55:00
10:15 AM,46.6,24.6,42,30.54,10.0,East,9.2,-,N/A,,Clear,90,2014-04-17 14:15:00
10:35 AM,47.1,22.8,38,30.54,10.0,East,11.5,16.1,N/A,,Clear,90,2014-04-17 14:35:00
10:55 AM,48.9,22.5,35,30.54,10.0,East,11.5,16.1,N/A,,Clear,80,2014-04-17 14:55:00
11:15 AM,49.8,23.2,35,30.54,10.0,East,9.2,-,N/A,,Clear,80,2014-04-17 15:15:00
11:35 AM,51.1,24.6,36,30.53,10.0,ENE,10.4,-,N/A,,Clear,70,2014-04-17 15:35:00
11:55 AM,50.9,24.3,35,30.53,10.0,ENE,11.5,-,N/A,,Clear,70,2014-04-17 15:55:00
12:15 PM,51.8,24.1,34,30.53,10.0,East,8.1,-,N/A,,Clear,100,2014-04-17 16:15:00
12:35 PM,52.2,24.1,34,30.52,10.0,East,10.4,-,N/A,,Clear,90,2014-04-17 16:35:00
1:15 PM,54.1,24.3,31,30.50,10.0,East,8.1,-,N/A,,Clear,90,2014-04-17 17:15:00
1:35 PM,54.7,23.5,30,30.50,10.0,ESE,5.8,-,N/A,,Clear,120,2014-04-17 17:35:00
1:55 PM,56.1,24.3,29,30.49,10.0,ESE,9.2,16.1,N/A,,Clear,110,2014-04-17 17:55:00
2:15 PM,56.3,24.6,29,30.48,10.0,East,6.9,18.4,N/A,,Clear,100,2014-04-17 18:15:00
2:35 PM,56.7,25.2,30,30.47,10.0,NE,6.9,-,N/A,,Clear,50,2014-04-17 18:35:00
2:55 PM,58.1,23.7,27,30.47,10.0,ENE,8.1,-,N/A,,Clear,70,2014-04-17 18:55:00
3:15 PM,58.6,21.0,23,30.46,10.0,East,8.1,-,N/A,,Clear,100,2014-04-17 19:15:00
3:30 PM,59.0,20.8,23,30.44,10.0,ENE,10.4,-,N/A,,Clear,60,2014-04-17 19:30:00
3:55 PM,59.2,18.9,21,30.44,10.0,Calm,Calm,-,N/A,,Clear,0,2014-04-17 19:55:00
4:15 PM,59.9,19.4,21,30.44,10.0,ENE,9.2,-,N/A,,Clear,60,2014-04-17 20:15:00
4:35 PM,59.5,18.1,20,30.43,10.0,NE,6.9,-,N/A,,Clear,40,2014-04-17 20:35:00
4:55 PM,59.9,19.2,21,30.43,10.0,SE,6.9,-,N/A,,Clear,140,2014-04-17 20:55:00
5:15 PM,60.1,14.5,17,30.42,10.0,SE,5.8,-,N/A,,Clear,130,2014-04-17 21:15:00
5:35 PM,60.4,12.6,15,30.42,10.0,East,8.1,-,N/A,,Clear,80,2014-04-17 21:35:00
5:55 PM,60.1,17.1,19,30.41,10.0,ESE,4.6,-,N/A,,Clear,110,2014-04-17 21:55:00
6:15 PM,60.3,13.5,16,30.41,10.0,ESE,6.9,-,N/A,,Clear,110,2014-04-17 22:15:00
6:35 PM,59.9,14.0,17,30.40,10.0,ESE,6.9,-,N/A,,Clear,110,2014-04-17 22:35:00
6:55 PM,59.0,11.8,16,30.40,7.0,ESE,9.2,-,N/A,,Clear,120,2014-04-17 22:55:00
7:15 PM,58.5,12.6,16,30.41,10.0,ESE,6.9,-,N/A,,Clear,110,2014-04-17 23:15:00
7:35 PM,57.4,16.0,20,30.42,10.0,ESE,4.6,-,N/A,,Clear,120,2014-04-17 23:35:00
7:55 PM,56.3,18.0,22,30.43,10.0,ESE,4.6,-,N/A,,Clear,110,2014-04-17 23:55:00
8:15 PM,54.9,19.8,25,30.43,10.0,East,3.5,-,N/A,,Clear,80,2014-04-18 00:15:00
8:35 PM,52.3,25.2,35,30.43,10.0,Calm,Calm,-,N/A,,Clear,0,2014-04-18 00:35:00
8:55 PM,49.3,31.6,51,30.43,10.0,Calm,Calm,-,N/A,,Clear,0,2014-04-18 00:55:00
9:15 PM,49.6,28.8,45,30.43,10.0,ENE,3.5,-,N/A,,Clear,70,2014-04-18 01:15:00
9:35 PM,49.6,30.2,47,30.44,10.0,Calm,Calm,-,N/A,,Clear,0,2014-04-18 01:35:00
9:55 PM,48.2,30.7,51,30.44,10.0,ENE,3.5,-,N/A,,Clear,60,2014-04-18 01:55:00
10:15 PM,48.4,30.4,50,30.45,10.0,NE,3.5,-,N/A,,Clear,40,2014-04-18 02:15:00
10:35 PM,46.9,30.6,53,30.45,10.0,NE,3.5,-,N/A,,Clear,50,2014-04-18 02:35:00
10:55 PM,47.5,29.5,50,30.45,10.0,ENE,3.5,-,N/A,,Clear,70,2014-04-18 02:55:00
11:15 PM,48.4,28.8,47,30.44,10.0,ENE,4.6,-,N/A,,Clear,60,2014-04-18 03:15:00
11:35 PM,50.9,26.1,38,30.43,10.0,ENE,5.8,-,N/A,,Clear,70,2014-04-18 03:35:00
11:55 PM,50.9,25.3,37,30.43,10.0,ENE,6.9,-,N/A,,Clear,70,2014-04-18 03:55:00